Date String (YYYY-MM-DD hh:mm:ss) UTC,Instrument flags,Ambient pressure (hPa),Sample flow (lpm),Bypass flow (lpm),Sample temperature (°C),Ambient temperature (°C),ASC tube jacket temperature (°C),LED temperature (°C),Box temperature (°C),Sample RH (%),Span deviation,Mass concentration (μg/m³),Mass concentration (μg/m³),Mass concentration (μg/m³)
DateTimeUTC,F1_M11,P_M11,Q1_M11,Q2_M11,T1_M11,T2_M11,T3_M11,T4_M11,T5_M11,U1_M11,ZSPAN_M11,X0_M11,X2_M11,X1_M11
2021-10-19 11:00:00,,0817.5,5.00,0.00,28.5,27.4,00.0,37.7,30.1,11.6,0000.0,0015.90,0004.63,0003.31
2021-10-19 11:01:00,,0817.5,5.01,0.00,28.5,27.4,00.0,37.7,30.2,11.6,0000.0,0015.93,0004.65,0003.31
2021-10-19 11:02:00,,0817.5,4.99,0.00,28.4,27.3,00.0,37.7,30.1,11.7,0000.0,0015.23,0004.64,0003.32
2021-10-19 11:03:00,,0817.4,4.99,0.00,28.4,27.3,00.0,37.6,30.1,11.7,0000.0,0015.23,0004.60,0003.32
2021-10-19 11:04:00,,0817.5,5.01,0.00,28.4,27.3,00.0,37.6,30.1,11.6,0000.0,0014.86,0004.60,0003.30
2021-10-19 11:05:00,,0817.5,5.00,0.00,28.4,27.3,00.0,37.6,30.1,11.5,0000.0,0014.92,0004.59,0003.28
2021-10-19 11:06:00,,0817.5,5.00,0.00,28.4,27.3,00.0,37.6,30.1,11.6,0000.0,0016.06,0004.59,0003.28
2021-10-19 11:07:00,,0817.5,4.99,0.00,28.4,27.3,00.0,37.6,30.1,11.7,0000.0,0015.21,0004.63,0003.28
2021-10-19 11:08:00,,0817.5,5.01,0.00,28.4,27.3,00.0,37.6,30.1,11.8,0000.0,0015.25,0004.67,0003.30
2021-10-19 11:09:00,,0817.5,4.99,0.00,28.4,27.3,00.0,37.6,30.1,11.8,0000.0,0014.94,0004.72,0003.31
2021-10-19 11:10:00,,0817.5,5.01,0.00,28.4,27.3,00.0,37.6,30.1,11.4,0000.0,0014.99,0004.75,0003.30
2021-10-19 11:11:00,,0817.5,4.99,0.00,28.4,27.3,00.0,37.6,30.1,11.3,0000.0,0015.14,0004.71,0003.29
2021-10-19 11:12:00,,0817.5,5.01,0.00,28.4,27.3,00.0,37.6,30.1,11.4,0000.0,0015.69,0004.71,0003.28
2021-10-19 11:13:00,,0817.5,4.99,0.00,28.4,27.3,00.0,37.6,30.1,11.7,0000.0,0015.26,0004.71,0003.27
2021-10-19 11:14:00,,0817.5,5.00,0.00,28.4,27.3,00.0,37.6,30.1,11.8,0000.0,0014.51,0004.70,0003.27
2021-10-19 11:15:00,,0817.5,5.01,0.00,28.4,27.3,00.0,37.6,30.1,11.6,0000.0,0014.11,0004.64,0003.27
2021-10-19 11:16:00,,0817.5,5.00,0.00,28.4,27.3,00.0,37.6,30.1,11.4,0000.0,0013.88,0004.65,0003.28
2021-10-19 11:17:00,,0817.4,5.00,0.00,28.4,27.3,00.0,37.5,30.0,11.3,0000.0,0012.34,0004.64,0003.28
2021-10-19 11:18:00,,0817.5,5.00,0.00,28.4,27.3,00.0,37.5,30.0,11.5,0000.0,0012.70,0004.65,0003.27
2021-10-19 11:19:00,,0817.5,5.01,0.00,28.3,27.3,00.0,37.5,30.0,11.1,0000.0,0012.92,0004.65,0003.26
2021-10-19 11:20:00,,0817.5,5.00,0.00,28.3,27.3,00.0,37.5,30.0,10.7,0000.0,0014.59,0004.61,0003.23
2021-10-19 11:21:00,,0817.5,5.00,0.00,28.3,27.3,00.0,37.5,30.0,10.3,0000.0,0014.65,0004.53,0003.20
2021-10-19 11:22:00,,0817.5,5.00,0.00,28.3,27.3,00.0,37.5,30.0,10.1,0000.0,0014.26,0004.45,0003.17
2021-10-19 11:23:00,,0817.5,5.01,0.00,28.3,27.3,00.0,37.5,30.0,09.6,0000.0,0012.90,0004.32,0003.11
2021-10-19 11:24:00,,0817.4,5.00,0.00,28.3,27.3,00.0,37.5,30.0,09.8,0000.0,0012.59,0004.19,0003.01
2021-10-19 11:25:00,,0817.5,5.01,0.00,28.3,27.2,00.0,37.5,30.0,09.8,0000.0,0012.31,0004.10,0002.89
2021-10-19 11:26:00,,0817.5,4.99,0.00,28.3,27.2,00.0,37.5,30.0,09.6,0000.0,0012.64,0004.01,0002.76
2021-10-19 11:27:00,,0817.5,5.00,0.00,28.3,27.2,00.0,37.5,30.0,09.7,0000.0,0013.70,0003.88,0002.63
2021-10-19 11:28:00,,0817.5,5.00,0.00,28.3,27.2,00.0,37.5,29.9,09.9,0000.0,0013.72,0003.76,0002.52
2021-10-19 11:29:00,,0817.6,5.00,0.00,28.3,27.2,00.0,37.5,30.0,10.1,0000.0,0013.56,0003.70,0002.44
2021-10-19 11:30:00,,0817.6,4.99,0.00,28.3,27.2,00.0,37.5,30.0,10.0,0000.0,0013.65,0003.61,0002.35
2021-10-19 11:31:00,,0817.6,5.00,0.00,28.2,27.2,00.0,37.5,29.9,09.9,0000.0,0011.83,0003.55,0002.28
2021-10-19 11:32:00,,0817.6,5.00,0.00,28.2,27.2,00.0,37.5,30.0,09.6,0000.0,0012.11,0003.53,0002.20
2021-10-19 11:33:00,,0817.7,5.01,0.00,28.2,27.1,00.0,37.4,29.9,09.5,0000.0,0012.34,0003.55,0002.16
2021-10-19 11:34:00,,0817.7,4.99,0.00,28.2,27.1,00.0,37.4,29.9,09.4,0000.0,0012.32,0003.56,0002.15
2021-10-19 11:35:00,,0817.7,5.01,0.00,28.2,27.1,00.0,37.4,29.9,09.3,0000.0,0012.27,0003.55,0002.13
2021-10-19 11:36:00,,0817.7,4.99,0.00,28.2,27.1,00.0,37.4,29.9,09.4,0000.0,0012.12,0003.46,0002.09
2021-10-19 11:37:00,,0817.8,5.00,0.00,28.2,27.1,00.0,37.4,29.8,09.3,0000.0,0011.70,0003.46,0002.08
2021-10-19 11:38:00,,0817.7,5.00,0.00,28.2,27.1,00.0,37.4,29.8,09.0,0000.0,0010.37,0003.40,0002.02
2021-10-19 11:39:00,,0817.8,4.99,0.00,28.2,27.1,00.0,37.4,29.8,09.0,0000.0,0010.17,0003.37,0001.97
2021-10-19 11:40:00,,0817.8,5.00,0.00,28.1,27.1,00.0,37.4,29.8,08.9,0000.0,0009.60,0003.29,0001.92
2021-10-19 11:41:00,,0817.8,4.99,0.00,28.1,27.0,00.0,37.4,29.8,08.8,0000.0,0008.82,0003.19,0001.84
2021-10-19 11:42:00,,0817.9,5.00,0.00,28.1,27.0,00.0,37.4,29.8,08.7,0000.0,0008.90,0003.05,0001.77
2021-10-19 11:43:00,,0817.9,5.00,0.00,28.1,27.0,00.0,37.3,29.8,08.8,0000.0,0008.11,0002.87,0001.72
2021-10-19 11:44:00,,0817.9,5.01,0.00,28.1,27.0,00.0,37.3,29.8,08.8,0000.0,0007.77,0002.78,0001.67
2021-10-19 11:45:00,,0817.9,4.99,0.00,28.1,27.0,00.0,37.3,29.8,08.8,0000.0,0007.77,0002.74,0001.63
2021-10-19 11:46:00,,0818.0,5.00,0.00,28.1,27.0,00.0,37.3,29.8,08.8,0000.0,0008.17,0002.68,0001.59
2021-10-19 11:47:00,,0818.0,5.01,0.00,28.1,27.0,00.0,37.3,29.8,08.8,0000.0,0008.25,0002.68,0001.56
2021-10-19 11:48:00,,0818.0,5.00,0.00,28.1,27.0,00.0,37.3,29.8,08.7,0000.0,0007.88,0002.55,0001.52
2021-10-19 11:49:00,,0818.0,5.00,0.00,28.1,27.0,00.0,37.3,29.8,08.7,0000.0,0007.38,0002.53,0001.51
2021-10-19 11:50:00,,0818.0,5.00,0.00,28.1,27.0,00.0,37.3,29.8,09.0,0000.0,0007.14,0002.46,0001.50
2021-10-19 11:51:00,,0818.0,4.99,0.00,28.1,27.0,00.0,37.3,29.7,09.1,0000.0,0007.04,0002.42,0001.47
2021-10-19 11:52:00,,0818.1,5.01,0.00,28.1,27.0,00.0,37.3,29.8,09.0,0000.0,0007.18,0002.37,0001.45
2021-10-19 11:53:00,,0818.2,5.00,0.00,28.0,27.0,00.0,37.3,29.8,09.0,0000.0,0006.83,0002.45,0001.47
2021-10-19 11:54:00,,0818.2,4.99,0.00,28.0,26.9,00.0,37.3,29.7,09.2,0000.0,0006.75,0002.53,0001.48
2021-10-19 11:55:00,,0818.2,4.99,0.00,28.0,26.9,00.0,37.2,29.7,09.3,0000.0,0006.75,0002.52,0001.51
2021-10-19 11:56:00,,0818.2,5.00,0.00,28.0,26.9,00.0,37.2,29.7,09.4,0000.0,0006.72,0002.53,0001.53
2021-10-19 11:57:00,,0818.2,5.01,0.00,28.0,26.9,00.0,37.2,29.7,09.4,0000.0,0006.34,0002.56,0001.57
2021-10-19 11:58:00,,0818.2,5.00,0.00,28.0,26.9,00.0,37.2,29.7,09.5,0000.0,0006.11,0002.62,0001.60
2021-10-19 11:59:00,,0818.3,5.00,0.00,28.0,26.9,00.0,37.2,29.7,09.6,0000.0,0007.15,0002.81,0001.66
